Home > Weather > Theni > Past weeks

Flag for India Past Weather in Theni, Tamil Nadu, India — Yesterday and Last 2 Weeks

Now
88 °F

Scattered clouds.


Feels Like: 93 °F
Forecast: 76 / 91 °F
Wind: 12 mph from South

Location: Coimbatore / Peelamedu

Current Time: Jun 26, 2016 at 1:47:21 PM

Latest Report: Jun 26, 2016 at 1:00 PM


Visibility: 4 mi

Pressure: 29.80 "Hg

Humidity: 55%

Dew Point: 70 °F

Location of TheniLocation

Past Weather in Theni — Graph

°F

Theni Temperature Yesterday

Maximum temperature yesterday: 88 °F (at 1:00 PM)
Minimum temperature yesterday: 70 °F (at 2:30 AM)
Average temperature yesterday: 77 °F

High & Low Weather Summary for the Past Weeks

 TemperatureHumidityPressure
High93 °F (Jun 14, 1:30 PM)94% (Jun 12, 1:30 AM)29.92 "Hg (Jun 12, 1:30 AM)
Low70 °F (Jun 25, 2:30 AM)34% (Jun 15, 1:00 PM)29.68 "Hg (Jun 17, 3:30 PM)
Average80 °F73%29.81 "Hg
* Reported Jun 11 12:30 PM — Jun 26 12:30 PM, Theni, Weather by CustomWeather, © 2016

Note: Actual official high and low records may vary slightly from our data, if they occured in-between our weather recording intervals... More about our weather records

Advertising

Theni Weather History for the Previous 24 Hours

Scroll right to see more
 ConditionsComfort  
Time TempWeatherWind HumidityBarometerVisibility
12:30 PM
Sun, Jun 26
86 °FScattered clouds.12 mph59%29.83 "Hg4 mi
12:00 PM86 °FScattered clouds.9 mph62%29.83 "Hg4 mi
11:30 AM88 °FScattered clouds.6 mph59%29.83 "Hg4 mi
11:00 AM84 °FScattered clouds.5 mph62%29.86 "Hg4 mi
10:30 AM82 °FScattered clouds.6 mph66%29.86 "Hg3 mi
9:30 AM79 °FPartly sunny.7 mph74%29.86 "Hg3 mi
8:30 AM77 °FFog.7 mph79%29.86 "Hg3 mi
7:30 AM75 °FFog.6 mph83%29.83 "Hg3 mi
6:30 AM73 °FFog.No wind89%29.83 "Hg3 mi
6:00 AM73 °FFog.No wind89%29.83 "Hg3 mi
5:30 AM73 °FFog.3 mph89%29.80 "Hg3 mi
5:00 AM73 °FFog.8 mph89%29.80 "Hg3 mi
4:30 AM73 °FFog.5 mph89%29.80 "Hg3 mi
3:30 AM73 °FFog.3 mph89%29.83 "Hg3 mi
3:00 AM73 °FFog.5 mph89%29.83 "Hg3 mi
2:30 AM73 °FFog.6 mph89%29.83 "Hg3 mi
1:30 AM73 °FPassing clouds.3 mph83%29.86 "Hg3 mi
12:30 AM73 °FPartly cloudy.3 mph83%29.86 "Hg3 mi
11:30 PM
Sat, Jun 25
73 °FPartly cloudy.6 mph83%29.86 "Hg3 mi
11:00 PM73 °FPassing clouds.10 mph78%29.86 "Hg3 mi
10:30 PM73 °FPassing clouds.10 mph78%29.86 "Hg3 mi
8:30 PM75 °FPassing clouds.9 mph74%29.86 "Hg3 mi
8:00 PM77 °FPassing clouds.7 mph69%29.86 "Hg3 mi
7:00 PM79 °FScattered clouds.8 mph61%29.83 "Hg3 mi
6:30 PM81 °FScattered clouds.9 mph62%29.83 "Hg3 mi
5:30 PM81 °FScattered clouds.9 mph62%29.80 "Hg4 mi
4:30 PM81 °FScattered clouds.10 mph62%29.80 "Hg4 mi
3:30 PM86 °FScattered clouds.10 mph46%29.77 "Hg4 mi
3:00 PM88 °FScattered clouds.15 mph43%29.80 "Hg4 mi
2:30 PM88 °FScattered clouds.13 mph43%29.80 "Hg4 mi
2:00 PM86 °FBroken clouds.15 mph49%29.80 "Hg4 mi
1:30 PM86 °FPartly sunny.8 mph49%29.80 "Hg4 mi
1:00 PM88 °FPartly sunny.6 mph46%29.80 "Hg4 mi
Weather by CustomWeather, © 2016

See weather overviewHow to use our weather pages